sat.trackr.live / text

‹ back to catalog

COSMOS 2586 (RODNIK-S *)

NORAD 63289 · 2025-054B

PAYLOAD ACTIVE UNKNOWN

§ Identity

Operator
Country
CIS
Launch date
2025-03-16
Launch site
PLMSC
Launch vehicle
Mass (kg)
RCS (m²)

External: N2YO · Heavens-Above · Gunter

§ Orbital elements

Epoch: 2026-09-20T19:49:54.532704Z

Period
115.86 min
Inclination
82.4969°
Eccentricity
0.0021424
Mean motion
12.42879366 rev/d
Perigee alt
1,477.6 km
Apogee alt
1,511.3 km
Semi-major
7,872.6 km
B*
1.1452e-4
RAAN
18.9913°
Arg perigee
172.4787°
Mean anomaly
187.6618°
Rev number
6,873

§ Raw data

COSMOS 2586 (RODNIK-S *)1 63289U 25054B   26263.82632561  .00000026  00000+0  11452-3 0  99992 63289  82.4969  18.9913 0021424 172.4787 187.6618 12.42879366 68737

JSON: /api/v1/satellites/63289 · /tle

For live sub-satellite position, see the globe view (requires WebGL).

§ Visibility from observer

Set your observer location to see the next 7 days of passes ≥ 10°. The values pass through the URL so the page stays shareable.

No JS? Fill the form by hand. The geolocation button needs JavaScript.